Location: Bottenau
(48.5138°N, 8.0462°E)
Time: 20:43:41
(UTC+00:00)

Lacrosse 5 rocket - Pass Details

Date: 18 April 2021
Orbit: 460 x 635 km, 57.0° (Epoch: 17 May)

Event Time Altitude Azimuth Distance (km) Brightness Sun altitude
Rises 21:05:09 0° 294° (WNW) 2,730 5.9 -22.6°
Reaches altitude 10° 21:07:37 10° 307° (NW) 1,868 5.0 -22.9°
Maximum altitude 21:11:15 27° 5° (N) 1,153 3.4 -23.2°
Enters shadow 21:14:18 14° 58° (ENE) 1,721 3.8 -23.5°
